GEMS2-AMETHYST

导读 | 豆包AI

GEMS2-AMETHYST卫星(NORAD编号68505)是一颗高分辨率商业遥感卫星,隶属于地理空间多任务卫星星座GEMS2项目。卫星运行于太阳同步轨道,具备高分辨率光学成像能力,全色分辨率可达亚米级,多光谱分辨率达2米级,可满足大比例尺测图需求。依托敏捷卫星平台,其侧摆机动能力突出,全球平均重访周期不超过2天,能实现高频次区域观测,支持地理测绘、资源监测、灾害响应等多领域应用,设计使用寿命为8年,是商业遥感市场中提供高分辨率对地观测服务的重要卫星。

基本信息
目录编号:
68505
目录名称:
GEMS2-AMETHYST
国际标识:
2026-067CT
轨道中心:
EARTH
卫星名称:
GEMS2-AMETHYST
卫星全名:
GEMS2-AMETHYST
卫星状态:
在轨 (已飞行31 天)
发射日期:
2026-03-30 UTC
国别 :
美国 (US)
星等 :
--
轨道信息
数据来源 国际轨道数据
星历时间: 2026-04-30T04:12:26+0800
6小时前
查看轨道信息
半长轴: 6973.729km
偏心率: 0.0004847
轨道倾角: 97.758°
近地点辐角 185.768°
升交点赤经 78.807°
平近点角 174.349°
近地点: 592.211km
远地点: 598.973km
周期: 96.596分钟
每日圈数: 14.907512
详细信息
使用方式:
暂无
2D轨道图
3D轨道图
轨道高度分析图
轨道倾角分析图
轨道综合分析图
查看轨道综合分析图